Year,Month,Day,Hour,Minute,Value (Times are PST for temperature in C)
2014,05,07,00,00,10.10
2014,05,07,00,01,10.10
2014,05,07,00,02,10.00
2014,05,07,00,03,10.00
2014,05,07,00,04,10.00
2014,05,07,00,05,10.00
2014,05,07,00,06,10.00
2014,05,07,00,07,10.00
2014,05,07,00,08,10.00
2014,05,07,00,09,9.90
2014,05,07,00,10,9.90
2014,05,07,00,11,9.90
2014,05,07,00,12,9.90
2014,05,07,00,13,9.90
2014,05,07,00,14,9.90
2014,05,07,00,15,9.80
2014,05,07,00,16,9.80
2014,05,07,00,17,9.80
2014,05,07,00,18,9.80
2014,05,07,00,19,9.70
2014,05,07,00,20,9.80
2014,05,07,00,21,9.80
2014,05,07,00,22,9.80
2014,05,07,00,23,9.80
2014,05,07,00,24,9.80
2014,05,07,00,25,9.80
2014,05,07,00,26,9.80
2014,05,07,00,27,9.80
2014,05,07,00,28,9.70
2014,05,07,00,29,9.80
2014,05,07,00,30,9.80
2014,05,07,00,31,9.90
2014,05,07,00,32,9.90
2014,05,07,00,33,9.90
2014,05,07,00,34,9.90
2014,05,07,00,35,9.90
2014,05,07,00,36,9.90
2014,05,07,00,37,9.90
2014,05,07,00,38,9.90
2014,05,07,00,39,9.90
2014,05,07,00,40,9.90
2014,05,07,00,41,9.90
2014,05,07,00,42,9.90
2014,05,07,00,43,9.90
2014,05,07,00,44,9.90
2014,05,07,00,45,9.90
2014,05,07,00,46,9.90
2014,05,07,00,47,9.80
2014,05,07,00,48,9.80
2014,05,07,00,49,9.70
2014,05,07,00,50,9.70
2014,05,07,00,51,9.80
2014,05,07,00,52,9.80
2014,05,07,00,53,9.90
2014,05,07,00,54,9.90
2014,05,07,00,55,9.90
2014,05,07,00,56,9.90
2014,05,07,00,57,9.90
2014,05,07,00,58,9.90
2014,05,07,00,59,9.90
2014,05,07,01,00,10.00
2014,05,07,01,01,10.00
2014,05,07,01,02,10.00
2014,05,07,01,03,10.00
2014,05,07,01,04,9.90
2014,05,07,01,05,9.90
2014,05,07,01,06,9.90
2014,05,07,01,07,9.80
2014,05,07,01,08,9.70
2014,05,07,01,09,9.70
2014,05,07,01,10,9.60
2014,05,07,01,11,9.60
2014,05,07,01,12,9.50
2014,05,07,01,13,9.50
2014,05,07,01,14,9.40
2014,05,07,01,15,9.40
2014,05,07,01,16,9.30
2014,05,07,01,17,9.30
2014,05,07,01,18,9.20
2014,05,07,01,19,9.10
2014,05,07,01,20,9.00
2014,05,07,01,21,8.90
2014,05,07,01,22,8.90
2014,05,07,01,23,8.80
2014,05,07,01,24,8.80
2014,05,07,01,25,8.70
2014,05,07,01,26,8.70
2014,05,07,01,27,8.70
2014,05,07,01,28,8.60
2014,05,07,01,29,8.60
2014,05,07,01,30,8.60
2014,05,07,01,31,8.60
2014,05,07,01,32,8.60
2014,05,07,01,33,8.60
2014,05,07,01,34,8.60
2014,05,07,01,35,8.60
2014,05,07,01,36,8.60
2014,05,07,01,37,8.50
2014,05,07,01,38,8.50
2014,05,07,01,39,8.50
2014,05,07,01,40,8.40
2014,05,07,01,41,8.40
2014,05,07,01,42,8.40
2014,05,07,01,43,8.40
2014,05,07,01,44,8.40
2014,05,07,01,45,8.40
2014,05,07,01,46,8.40
2014,05,07,01,47,8.40
2014,05,07,01,48,8.40
2014,05,07,01,49,8.50
2014,05,07,01,50,8.50
2014,05,07,01,51,8.60
2014,05,07,01,52,8.60
2014,05,07,01,53,8.60
2014,05,07,01,54,8.60
2014,05,07,01,55,8.70
2014,05,07,01,56,8.70
2014,05,07,01,57,8.70
2014,05,07,01,58,8.70
2014,05,07,01,59,8.80
2014,05,07,02,00,8.80
2014,05,07,02,01,8.80
2014,05,07,02,02,8.80
2014,05,07,02,03,8.80
2014,05,07,02,04,8.80
2014,05,07,02,05,8.80
2014,05,07,02,06,8.90
2014,05,07,02,07,8.90
2014,05,07,02,08,8.90
2014,05,07,02,09,8.90
2014,05,07,02,10,8.90
2014,05,07,02,11,8.90
2014,05,07,02,12,8.90
2014,05,07,02,13,8.90
2014,05,07,02,14,8.90
2014,05,07,02,15,8.90
2014,05,07,02,16,8.90
2014,05,07,02,17,8.90
2014,05,07,02,18,8.90
2014,05,07,02,19,8.90
2014,05,07,02,20,8.90
2014,05,07,02,21,8.80
2014,05,07,02,22,8.80
2014,05,07,02,23,8.80
2014,05,07,02,24,8.80
2014,05,07,02,25,8.70
2014,05,07,02,26,8.60
2014,05,07,02,27,8.60
2014,05,07,02,28,8.50
2014,05,07,02,29,8.50
2014,05,07,02,30,8.60
2014,05,07,02,31,8.60
2014,05,07,02,32,8.60
2014,05,07,02,33,8.60
2014,05,07,02,34,8.50
2014,05,07,02,35,8.50
2014,05,07,02,36,8.40
2014,05,07,02,37,8.40
2014,05,07,02,38,8.40
2014,05,07,02,39,8.40
2014,05,07,02,40,8.40
2014,05,07,02,41,8.40
2014,05,07,02,42,8.40
2014,05,07,02,43,8.40
2014,05,07,02,44,8.40
2014,05,07,02,45,8.40
2014,05,07,02,46,8.40
2014,05,07,02,47,8.30
2014,05,07,02,48,8.30
2014,05,07,02,49,8.30
2014,05,07,02,50,8.30
2014,05,07,02,51,8.20
2014,05,07,02,52,8.20
2014,05,07,02,53,8.20
2014,05,07,02,54,8.20
2014,05,07,02,55,8.20
2014,05,07,02,56,8.20
2014,05,07,02,57,8.10
2014,05,07,02,58,8.10
2014,05,07,02,59,8.10
2014,05,07,03,00,8.00
2014,05,07,03,01,8.00
2014,05,07,03,02,7.90
2014,05,07,03,06,7.80
2014,05,07,03,07,7.80
2014,05,07,03,08,7.80
2014,05,07,03,09,7.80
2014,05,07,03,10,7.80
2014,05,07,03,11,7.80
2014,05,07,03,12,7.80
2014,05,07,03,13,7.80
2014,05,07,03,14,7.80
2014,05,07,03,15,7.80
2014,05,07,03,16,7.80
2014,05,07,03,17,7.80
2014,05,07,03,18,7.80
2014,05,07,03,19,7.80
2014,05,07,03,20,7.80
2014,05,07,03,21,7.80
2014,05,07,03,22,7.80
2014,05,07,03,23,7.90
2014,05,07,03,24,7.90
2014,05,07,03,25,8.00
2014,05,07,03,26,8.00
2014,05,07,03,27,8.00
2014,05,07,03,28,8.00
2014,05,07,03,29,8.00
2014,05,07,03,30,7.90
2014,05,07,03,31,7.90
2014,05,07,03,32,7.80
2014,05,07,03,33,7.80
2014,05,07,03,34,7.80
2014,05,07,03,35,7.80
2014,05,07,03,36,7.80
2014,05,07,03,37,7.80
2014,05,07,03,38,7.80
2014,05,07,03,39,7.80
2014,05,07,03,40,7.80
2014,05,07,03,41,7.80
2014,05,07,03,42,7.80
2014,05,07,03,43,7.80
2014,05,07,03,44,7.70
2014,05,07,03,45,7.80
2014,05,07,03,46,7.80
2014,05,07,03,47,7.70
2014,05,07,03,48,7.70
2014,05,07,03,49,7.70
2014,05,07,03,50,7.70
2014,05,07,03,51,7.70
2014,05,07,03,52,7.70
2014,05,07,03,53,7.70
2014,05,07,03,54,7.70
2014,05,07,03,55,7.70
2014,05,07,03,56,7.60
2014,05,07,03,57,7.60
2014,05,07,03,58,7.50
2014,05,07,03,59,7.50
2014,05,07,04,00,7.40
2014,05,07,04,01,7.30
2014,05,07,04,02,7.30
2014,05,07,04,03,7.20
2014,05,07,04,04,7.20
2014,05,07,04,05,7.10
2014,05,07,04,06,7.10
2014,05,07,04,07,7.10
2014,05,07,04,08,7.10
2014,05,07,04,09,7.10
2014,05,07,04,10,7.20
2014,05,07,04,11,7.30
2014,05,07,04,12,7.40
2014,05,07,04,13,7.50
2014,05,07,04,14,7.60
2014,05,07,04,15,7.60
2014,05,07,04,16,7.60
2014,05,07,04,17,7.50
2014,05,07,04,18,7.40
2014,05,07,04,19,7.40
2014,05,07,04,20,7.30
2014,05,07,04,21,7.30
2014,05,07,04,22,7.20
2014,05,07,04,23,7.20
2014,05,07,04,24,7.20
2014,05,07,04,25,7.20
2014,05,07,04,26,7.20
2014,05,07,04,27,7.20
2014,05,07,04,28,7.10
2014,05,07,04,29,7.10
2014,05,07,04,30,7.20
2014,05,07,04,31,7.20
2014,05,07,04,32,7.20
2014,05,07,04,33,7.30
2014,05,07,04,34,7.30
2014,05,07,04,35,7.40
2014,05,07,04,36,7.40
2014,05,07,04,37,7.50
2014,05,07,04,38,7.50
2014,05,07,04,39,7.70
2014,05,07,04,40,7.70
2014,05,07,04,41,7.70
2014,05,07,04,42,7.70
2014,05,07,04,43,7.80
2014,05,07,04,44,7.80
2014,05,07,04,45,7.80
2014,05,07,04,46,7.80
2014,05,07,04,47,7.90
2014,05,07,04,48,7.90
2014,05,07,04,49,7.90
2014,05,07,04,50,7.80
2014,05,07,04,51,7.80
2014,05,07,04,52,7.70
2014,05,07,04,53,7.70
2014,05,07,04,54,7.70
2014,05,07,04,55,7.70
2014,05,07,04,56,7.70
2014,05,07,04,57,7.70
2014,05,07,04,58,7.70
2014,05,07,04,59,7.70
2014,05,07,05,00,7.70
2014,05,07,05,01,7.70
2014,05,07,05,02,7.70
2014,05,07,05,03,7.70
2014,05,07,05,04,7.70
2014,05,07,05,05,7.80
2014,05,07,05,06,7.70
2014,05,07,05,07,7.70
2014,05,07,05,08,7.60
2014,05,07,05,09,7.60
2014,05,07,05,10,7.50
2014,05,07,05,11,7.40
2014,05,07,05,12,7.40
2014,05,07,05,13,7.30
2014,05,07,05,14,7.20
2014,05,07,05,15,7.20
2014,05,07,05,16,7.20
2014,05,07,05,17,7.20
2014,05,07,05,18,7.30
2014,05,07,05,19,7.30
2014,05,07,05,20,7.40
2014,05,07,05,21,7.50
2014,05,07,05,22,7.60
2014,05,07,05,23,7.60
2014,05,07,05,24,7.50
2014,05,07,05,25,7.50
2014,05,07,05,26,7.40
2014,05,07,05,27,7.40
2014,05,07,05,28,7.40
2014,05,07,05,29,7.30
2014,05,07,05,30,7.30
2014,05,07,05,31,7.20
2014,05,07,05,32,7.20
2014,05,07,05,33,7.20
2014,05,07,05,34,7.20
2014,05,07,05,35,7.10
2014,05,07,05,36,7.10
2014,05,07,05,37,7.10
2014,05,07,05,38,7.10
2014,05,07,05,39,7.10
2014,05,07,05,40,7.20
2014,05,07,05,41,7.20
2014,05,07,05,42,7.20
2014,05,07,05,43,7.30
2014,05,07,05,44,7.30
2014,05,07,05,45,7.20
2014,05,07,05,46,7.20
2014,05,07,05,47,7.20
2014,05,07,05,48,7.20
2014,05,07,05,49,7.10
2014,05,07,05,50,7.00
2014,05,07,05,51,7.00
2014,05,07,05,52,7.00
2014,05,07,05,53,7.00
2014,05,07,05,54,7.00
2014,05,07,05,55,7.10
2014,05,07,05,56,7.10
2014,05,07,05,57,7.10
2014,05,07,05,58,7.10
2014,05,07,05,59,7.10
2014,05,07,06,00,7.10
2014,05,07,06,01,7.10
2014,05,07,06,02,7.20
2014,05,07,06,03,7.20
2014,05,07,06,04,7.20
2014,05,07,06,05,7.20
2014,05,07,06,06,7.20
2014,05,07,06,07,7.20
2014,05,07,06,08,7.20
2014,05,07,06,09,7.20
2014,05,07,06,10,7.20
2014,05,07,06,11,7.10
2014,05,07,06,12,7.20
2014,05,07,06,13,7.20
2014,05,07,06,14,7.20
2014,05,07,06,15,7.20
2014,05,07,06,16,7.10
2014,05,07,06,17,7.10
2014,05,07,06,18,7.10
2014,05,07,06,19,7.10
2014,05,07,06,20,7.00
2014,05,07,06,21,7.00
2014,05,07,06,22,6.90
2014,05,07,06,23,6.90
2014,05,07,06,24,6.90
2014,05,07,06,25,6.80
2014,05,07,06,26,6.80
2014,05,07,06,27,6.70
2014,05,07,06,28,6.70
2014,05,07,06,29,6.60
2014,05,07,06,30,6.50
2014,05,07,06,31,6.50
2014,05,07,06,32,6.40
2014,05,07,06,33,6.40
2014,05,07,06,34,6.30
2014,05,07,06,35,6.30
2014,05,07,06,36,6.20
2014,05,07,06,37,6.30
2014,05,07,06,38,6.30
2014,05,07,06,39,6.30
2014,05,07,06,40,6.40
2014,05,07,06,41,6.30
2014,05,07,06,42,6.40
2014,05,07,06,43,6.50
2014,05,07,06,44,6.60
2014,05,07,06,45,6.60
2014,05,07,06,46,6.60
2014,05,07,06,47,6.70
2014,05,07,06,48,6.70
2014,05,07,06,49,6.80
2014,05,07,06,50,6.80
2014,05,07,06,51,6.80
2014,05,07,06,52,6.90
2014,05,07,06,53,6.90
2014,05,07,06,54,7.00
2014,05,07,06,55,7.00
2014,05,07,06,56,7.10
2014,05,07,06,57,7.10
2014,05,07,06,58,7.10
2014,05,07,06,59,7.10
2014,05,07,07,00,7.20
2014,05,07,07,01,7.20
2014,05,07,07,02,7.20
2014,05,07,07,03,7.30
2014,05,07,07,04,7.30
2014,05,07,07,05,7.40
2014,05,07,07,06,7.40
2014,05,07,07,07,7.50
2014,05,07,07,08,7.50
2014,05,07,07,09,7.60
2014,05,07,07,10,7.70
2014,05,07,07,11,7.70
2014,05,07,07,12,7.80
2014,05,07,07,13,7.80
2014,05,07,07,14,7.90
2014,05,07,07,15,7.90
2014,05,07,07,16,8.00
2014,05,07,07,17,8.10
2014,05,07,07,18,8.10
2014,05,07,07,19,8.20
2014,05,07,07,20,8.20
2014,05,07,07,21,8.30
2014,05,07,07,22,8.30
2014,05,07,07,23,8.40
2014,05,07,07,24,8.50
2014,05,07,07,25,8.60
2014,05,07,07,26,8.70
2014,05,07,07,27,8.80
2014,05,07,07,28,8.80
2014,05,07,07,29,8.90
2014,05,07,07,30,9.00
2014,05,07,07,31,9.00
2014,05,07,07,32,9.10
2014,05,07,07,33,9.20
2014,05,07,07,34,9.20
2014,05,07,07,35,9.30
2014,05,07,07,36,9.30
2014,05,07,07,37,9.40
2014,05,07,07,38,9.40
2014,05,07,07,39,9.50
2014,05,07,07,40,9.60
2014,05,07,07,41,9.60
2014,05,07,07,42,9.70
2014,05,07,07,43,9.80
2014,05,07,07,44,9.80
2014,05,07,07,45,9.90
2014,05,07,07,46,10.00
2014,05,07,07,47,10.00
2014,05,07,07,48,10.00
2014,05,07,07,49,10.00
2014,05,07,07,50,10.00
2014,05,07,07,51,10.00
2014,05,07,07,52,9.90
2014,05,07,07,53,9.90
2014,05,07,07,54,9.90
2014,05,07,07,55,9.90
2014,05,07,07,56,9.90
2014,05,07,07,57,10.00
2014,05,07,07,58,10.00
2014,05,07,07,59,10.00
2014,05,07,08,00,10.10
2014,05,07,08,01,10.10
2014,05,07,08,02,10.20
2014,05,07,08,03,10.20
2014,05,07,08,04,10.30
2014,05,07,08,05,10.30
2014,05,07,08,06,10.30
2014,05,07,08,07,10.30
2014,05,07,08,08,10.30
2014,05,07,08,09,10.40
2014,05,07,08,10,10.40
2014,05,07,08,11,10.40
2014,05,07,08,12,10.40
2014,05,07,08,13,10.30
2014,05,07,08,14,10.30
2014,05,07,08,15,10.30
2014,05,07,08,16,10.30
2014,05,07,08,17,10.30
2014,05,07,08,18,10.30
2014,05,07,08,19,10.30
2014,05,07,08,20,10.30
2014,05,07,08,21,10.30
2014,05,07,08,22,10.30
2014,05,07,08,23,10.30
2014,05,07,08,24,10.40
2014,05,07,08,25,10.40
2014,05,07,08,26,10.40
2014,05,07,08,27,10.40
2014,05,07,08,28,10.50
2014,05,07,08,29,10.50
2014,05,07,08,30,10.50
2014,05,07,08,31,10.50
2014,05,07,08,32,10.60
2014,05,07,08,33,10.60
2014,05,07,08,34,10.70
2014,05,07,08,35,10.80
2014,05,07,08,36,10.80
2014,05,07,08,37,10.70
2014,05,07,08,38,10.70
2014,05,07,08,39,10.60
2014,05,07,08,40,10.60
2014,05,07,08,41,10.60
2014,05,07,08,42,10.60
2014,05,07,08,43,10.60
2014,05,07,08,44,10.60
2014,05,07,08,45,10.70
2014,05,07,08,46,10.70
2014,05,07,08,47,10.70
2014,05,07,08,48,10.80
2014,05,07,08,49,10.80
2014,05,07,08,50,10.90
2014,05,07,08,51,10.90
2014,05,07,08,52,11.00
2014,05,07,08,53,11.10
2014,05,07,08,54,11.20
2014,05,07,08,55,11.20
2014,05,07,08,56,11.30
2014,05,07,08,57,11.30
2014,05,07,08,58,11.40
2014,05,07,08,59,11.40
2014,05,07,09,00,11.50
2014,05,07,09,01,11.60
2014,05,07,09,02,11.60
2014,05,07,09,03,11.70
2014,05,07,09,04,11.70
2014,05,07,09,05,11.70
2014,05,07,09,06,11.70
2014,05,07,09,07,11.80
2014,05,07,09,08,11.80
2014,05,07,09,09,11.80
2014,05,07,09,10,11.90
2014,05,07,09,11,11.90
2014,05,07,09,12,11.90
2014,05,07,09,13,11.90
2014,05,07,09,14,11.90
2014,05,07,09,15,11.90
2014,05,07,09,16,12.00
2014,05,07,09,17,12.00
2014,05,07,09,18,12.00
2014,05,07,09,19,12.00
2014,05,07,09,20,12.10
2014,05,07,09,21,12.20
2014,05,07,09,22,12.30
2014,05,07,09,23,12.30
2014,05,07,09,24,12.30
2014,05,07,09,25,12.40
2014,05,07,09,26,12.40
2014,05,07,09,27,12.50
2014,05,07,09,28,12.50
2014,05,07,09,29,12.60
2014,05,07,09,30,12.60
2014,05,07,09,31,12.60
2014,05,07,09,32,12.60
2014,05,07,09,33,12.70
2014,05,07,09,34,12.70
2014,05,07,09,35,12.70
2014,05,07,09,36,12.60
2014,05,07,09,37,12.50
2014,05,07,09,38,12.40
2014,05,07,09,39,12.40
2014,05,07,09,40,12.50
2014,05,07,09,41,12.50
2014,05,07,09,42,12.60
2014,05,07,09,43,12.70
2014,05,07,09,44,12.80
2014,05,07,09,45,12.90
2014,05,07,09,46,12.90
2014,05,07,09,47,13.00
2014,05,07,09,48,13.00
2014,05,07,09,49,13.00
2014,05,07,09,50,13.10
2014,05,07,09,51,13.10
2014,05,07,09,52,13.20
2014,05,07,09,53,13.10
2014,05,07,09,54,13.10
2014,05,07,09,55,13.00
2014,05,07,09,56,13.00
2014,05,07,09,57,13.10
2014,05,07,09,58,13.10
2014,05,07,09,59,13.20
2014,05,07,10,00,13.20
2014,05,07,10,01,13.30
2014,05,07,10,02,13.30
2014,05,07,10,03,13.40
2014,05,07,10,04,13.40
2014,05,07,10,05,13.40
2014,05,07,10,06,13.50
2014,05,07,10,07,13.50
2014,05,07,10,08,13.40
2014,05,07,10,09,13.40
2014,05,07,10,10,13.40
2014,05,07,10,11,13.50
2014,05,07,10,12,13.50
2014,05,07,10,13,13.60
2014,05,07,10,14,13.70
2014,05,07,10,15,13.70
2014,05,07,10,16,13.80
2014,05,07,10,17,13.90
2014,05,07,10,18,14.00
2014,05,07,10,19,14.10
2014,05,07,10,20,14.20
2014,05,07,10,21,14.30
2014,05,07,10,22,14.40
2014,05,07,10,23,14.40
2014,05,07,10,24,14.40
2014,05,07,10,25,14.40
2014,05,07,10,26,14.20
2014,05,07,10,27,14.10
2014,05,07,10,28,13.90
2014,05,07,10,29,13.70
2014,05,07,10,30,13.60
2014,05,07,10,31,13.50
2014,05,07,10,32,13.30
2014,05,07,10,33,13.30
2014,05,07,10,34,13.30
2014,05,07,10,35,13.40
2014,05,07,10,36,13.40
2014,05,07,10,37,13.50
2014,05,07,10,38,13.60
2014,05,07,10,39,13.60
2014,05,07,10,40,13.70
2014,05,07,10,41,13.70
2014,05,07,10,42,13.70
2014,05,07,10,43,13.70
2014,05,07,10,44,13.60
2014,05,07,10,45,13.60
2014,05,07,10,46,13.60
2014,05,07,10,47,13.70
2014,05,07,10,48,13.70
2014,05,07,10,49,13.70
2014,05,07,10,50,13.70
2014,05,07,10,51,13.70
2014,05,07,10,52,13.70
2014,05,07,10,53,13.70
2014,05,07,10,54,13.70
2014,05,07,10,55,13.80
2014,05,07,10,56,13.80
2014,05,07,10,57,13.90
2014,05,07,10,58,13.90
2014,05,07,10,59,14.00
2014,05,07,11,00,14.00
2014,05,07,11,01,14.10
2014,05,07,11,02,14.10
2014,05,07,11,03,14.10
2014,05,07,11,04,14.00
2014,05,07,11,05,13.90
2014,05,07,11,06,13.80
2014,05,07,11,07,13.80
2014,05,07,11,08,13.80
2014,05,07,11,09,13.70
2014,05,07,11,10,13.70
2014,05,07,11,11,13.70
2014,05,07,11,12,13.70
2014,05,07,11,13,13.80
2014,05,07,11,14,13.90
2014,05,07,11,15,14.00
2014,05,07,11,16,14.10
2014,05,07,11,17,14.20
2014,05,07,11,18,14.20
2014,05,07,11,19,14.30
2014,05,07,11,20,14.20
2014,05,07,11,21,14.10
2014,05,07,11,22,14.00
2014,05,07,11,23,13.90
2014,05,07,11,24,13.70
2014,05,07,11,25,13.60
2014,05,07,11,26,13.60
2014,05,07,11,27,13.60
2014,05,07,11,28,13.60
2014,05,07,11,29,13.70
2014,05,07,11,30,13.80
2014,05,07,11,31,14.00
2014,05,07,11,32,14.00
2014,05,07,11,33,14.10
2014,05,07,11,34,14.20
2014,05,07,11,35,14.30
2014,05,07,11,36,14.50
2014,05,07,11,37,14.60
2014,05,07,11,38,14.70
2014,05,07,11,39,14.70
2014,05,07,11,40,14.80
2014,05,07,11,41,14.80
2014,05,07,11,42,14.80
2014,05,07,11,43,14.90
2014,05,07,11,44,15.00
2014,05,07,11,45,15.00
2014,05,07,11,46,14.90
2014,05,07,11,47,14.80
2014,05,07,11,48,14.80
2014,05,07,11,49,14.90
2014,05,07,11,50,15.00
2014,05,07,11,51,14.80
2014,05,07,11,52,14.80
2014,05,07,11,53,14.90
2014,05,07,11,54,15.00
2014,05,07,11,55,15.00
2014,05,07,11,56,14.90
2014,05,07,11,57,14.80
2014,05,07,11,58,14.60
2014,05,07,11,59,14.50
2014,05,07,12,00,14.40
2014,05,07,12,01,14.40
2014,05,07,12,02,14.40
2014,05,07,12,03,14.60
2014,05,07,12,04,14.60
2014,05,07,12,05,14.80
2014,05,07,12,06,14.90
2014,05,07,12,07,15.00
2014,05,07,12,08,15.00
2014,05,07,12,09,15.00
2014,05,07,12,10,15.00
2014,05,07,12,11,15.10
2014,05,07,12,12,15.00
2014,05,07,12,13,15.00
2014,05,07,12,14,15.00
2014,05,07,12,15,15.00
2014,05,07,12,16,15.00
2014,05,07,12,17,15.00
2014,05,07,12,18,15.00
2014,05,07,12,19,15.00
2014,05,07,12,20,15.00
2014,05,07,12,21,15.00
2014,05,07,12,22,15.00
2014,05,07,12,23,15.00
2014,05,07,12,24,15.00
2014,05,07,12,25,15.10
2014,05,07,12,26,15.20
2014,05,07,12,27,15.40
2014,05,07,12,28,15.50
2014,05,07,12,29,15.50
2014,05,07,12,30,15.50
2014,05,07,12,31,15.60
2014,05,07,12,32,15.60
2014,05,07,12,33,15.60
2014,05,07,12,34,15.60
2014,05,07,12,35,15.60
2014,05,07,12,36,15.70
2014,05,07,12,37,15.80
2014,05,07,12,38,15.90
2014,05,07,12,39,15.90
2014,05,07,12,40,15.90
2014,05,07,12,41,16.00
2014,05,07,12,42,16.10
2014,05,07,12,43,16.20
2014,05,07,12,44,16.30
2014,05,07,12,45,16.40
2014,05,07,12,46,16.40
2014,05,07,12,47,16.30
2014,05,07,12,48,16.10
2014,05,07,12,49,15.90
2014,05,07,12,50,15.80
2014,05,07,12,51,15.60
2014,05,07,12,52,15.50
2014,05,07,12,53,15.50
2014,05,07,12,54,15.40
2014,05,07,12,55,15.40
2014,05,07,12,56,15.50
2014,05,07,12,57,15.50
2014,05,07,12,58,15.40
2014,05,07,12,59,15.40
2014,05,07,13,00,15.40
2014,05,07,13,01,15.30
2014,05,07,13,02,15.30
2014,05,07,13,03,15.30
2014,05,07,13,04,15.30
2014,05,07,13,05,15.40
2014,05,07,13,06,15.40
2014,05,07,13,07,15.50
2014,05,07,13,08,15.60
2014,05,07,13,09,15.70
2014,05,07,13,10,15.80
2014,05,07,13,11,15.90
2014,05,07,13,12,16.00
2014,05,07,13,13,16.20
2014,05,07,13,14,16.20
2014,05,07,13,15,16.30
2014,05,07,13,16,16.40
2014,05,07,13,17,16.50
2014,05,07,13,18,16.60
2014,05,07,13,19,16.70
2014,05,07,13,20,16.80
2014,05,07,13,21,16.80
2014,05,07,13,22,16.70
2014,05,07,13,23,16.70
2014,05,07,13,24,16.70
2014,05,07,13,25,16.70
2014,05,07,13,26,16.70
2014,05,07,13,27,16.70
2014,05,07,13,28,16.70
2014,05,07,13,29,16.70
2014,05,07,13,30,16.70
2014,05,07,13,31,16.70
2014,05,07,13,32,16.80
2014,05,07,13,33,16.80
2014,05,07,13,34,16.80
2014,05,07,13,35,16.80
2014,05,07,13,36,16.80
2014,05,07,13,37,16.80
2014,05,07,13,38,16.80
2014,05,07,13,39,16.90
2014,05,07,13,40,17.00
2014,05,07,13,41,17.00
2014,05,07,13,42,17.10
2014,05,07,13,43,17.10
2014,05,07,13,44,16.90
2014,05,07,13,45,16.90
2014,05,07,13,46,16.90
2014,05,07,13,47,16.80
2014,05,07,13,48,16.70
2014,05,07,13,49,16.70
2014,05,07,13,50,16.80
2014,05,07,13,51,16.80
2014,05,07,13,52,16.90
2014,05,07,13,53,16.90
2014,05,07,13,54,17.00
2014,05,07,13,55,17.10
2014,05,07,13,56,17.20
2014,05,07,13,57,17.30
2014,05,07,13,58,17.30
2014,05,07,13,59,17.20
2014,05,07,14,00,17.30
2014,05,07,14,01,17.40
2014,05,07,14,02,17.50
2014,05,07,14,03,17.60
2014,05,07,14,04,17.60
2014,05,07,14,05,17.70
2014,05,07,14,06,17.80
2014,05,07,14,07,17.80
2014,05,07,14,08,17.80
2014,05,07,14,09,17.80
2014,05,07,14,10,17.80
2014,05,07,14,11,17.80
2014,05,07,14,12,17.60
2014,05,07,14,13,17.50
2014,05,07,14,14,17.40
2014,05,07,14,15,17.40
2014,05,07,14,16,17.30
2014,05,07,14,17,17.20
2014,05,07,14,18,17.10
2014,05,07,14,19,17.10
2014,05,07,14,20,17.10
2014,05,07,14,21,17.20
2014,05,07,14,22,17.20
2014,05,07,14,23,17.00
2014,05,07,14,24,16.90
2014,05,07,14,25,16.70
2014,05,07,14,26,16.60
2014,05,07,14,27,16.60
2014,05,07,14,28,16.60
2014,05,07,14,29,16.60
2014,05,07,14,30,16.70
2014,05,07,14,31,16.80
2014,05,07,14,32,16.80
2014,05,07,14,33,16.80
2014,05,07,14,34,16.90
2014,05,07,14,35,17.00
2014,05,07,14,36,17.10
2014,05,07,14,37,17.20
2014,05,07,14,38,17.30
2014,05,07,14,39,17.40
2014,05,07,14,40,17.50
2014,05,07,14,41,17.50
2014,05,07,14,42,17.60
2014,05,07,14,43,17.70
2014,05,07,14,44,17.70
2014,05,07,14,45,17.80
2014,05,07,14,46,17.90
2014,05,07,14,47,18.00
2014,05,07,14,48,18.00
2014,05,07,14,49,17.90
2014,05,07,14,50,17.70
2014,05,07,14,51,17.50
2014,05,07,14,52,17.30
2014,05,07,14,53,17.20
2014,05,07,14,54,17.10
2014,05,07,14,55,17.00
2014,05,07,14,56,17.00
2014,05,07,14,57,17.00
2014,05,07,14,58,17.00
2014,05,07,14,59,16.90
2014,05,07,15,00,16.90
2014,05,07,15,01,16.90
2014,05,07,15,02,17.00
2014,05,07,15,03,17.00
2014,05,07,15,04,17.10
2014,05,07,15,05,16.90
2014,05,07,15,06,16.90
2014,05,07,15,07,16.90
2014,05,07,15,08,17.00
2014,05,07,15,09,17.10
2014,05,07,15,10,17.20
2014,05,07,15,11,17.30
2014,05,07,15,12,17.30
2014,05,07,15,13,17.30
2014,05,07,15,14,17.20
2014,05,07,15,15,17.10
2014,05,07,15,16,17.20
2014,05,07,15,17,17.20
2014,05,07,15,18,17.20
2014,05,07,15,19,17.30
2014,05,07,15,20,17.40
2014,05,07,15,21,17.40
2014,05,07,15,22,17.50
2014,05,07,15,23,17.60
2014,05,07,15,24,17.70
2014,05,07,15,25,17.60
2014,05,07,15,26,17.60
2014,05,07,15,27,17.60
2014,05,07,15,28,17.60
2014,05,07,15,29,17.60
2014,05,07,15,30,17.50
2014,05,07,15,31,17.50
2014,05,07,15,32,17.50
2014,05,07,15,33,17.50
2014,05,07,15,34,17.50
2014,05,07,15,35,17.60
2014,05,07,15,36,17.60
2014,05,07,15,37,17.70
2014,05,07,15,38,17.70
2014,05,07,15,39,17.70
2014,05,07,15,40,17.70
2014,05,07,15,41,17.60
2014,05,07,15,42,17.50
2014,05,07,15,43,17.40
2014,05,07,15,44,17.40
2014,05,07,15,45,17.50
2014,05,07,15,46,17.60
2014,05,07,15,47,17.60
2014,05,07,15,48,17.60
2014,05,07,15,49,17.60
2014,05,07,15,50,17.60
2014,05,07,15,51,17.60
2014,05,07,15,52,17.60
2014,05,07,15,53,17.70
2014,05,07,15,54,17.80
2014,05,07,15,55,17.70
2014,05,07,15,56,17.70
2014,05,07,15,57,17.70
2014,05,07,15,58,17.70
2014,05,07,15,59,17.80
2014,05,07,16,00,17.80
2014,05,07,16,01,17.80
2014,05,07,16,02,17.80
2014,05,07,16,03,17.90
2014,05,07,16,04,18.00
2014,05,07,16,05,18.10
2014,05,07,16,06,18.20
2014,05,07,16,07,18.20
2014,05,07,16,08,18.30
2014,05,07,16,09,18.40
2014,05,07,16,10,18.30
2014,05,07,16,11,18.30
2014,05,07,16,12,18.20
2014,05,07,16,13,18.10
2014,05,07,16,14,17.90
2014,05,07,16,15,17.90
2014,05,07,16,16,18.00
2014,05,07,16,17,18.10
2014,05,07,16,18,18.30
2014,05,07,16,19,18.30
2014,05,07,16,20,18.30
2014,05,07,16,21,18.30
2014,05,07,16,22,18.30
2014,05,07,16,23,18.30
2014,05,07,16,24,18.30
2014,05,07,16,25,18.30
2014,05,07,16,26,18.40
2014,05,07,16,27,18.40
2014,05,07,16,28,18.30
2014,05,07,16,29,18.30
2014,05,07,16,30,18.30
2014,05,07,16,31,18.20
2014,05,07,16,32,18.20
2014,05,07,16,33,18.10
2014,05,07,16,34,18.10
2014,05,07,16,35,18.10
2014,05,07,16,36,18.10
2014,05,07,16,37,18.00
2014,05,07,16,38,17.90
2014,05,07,16,39,17.90
2014,05,07,16,40,17.90
2014,05,07,16,41,17.90
2014,05,07,16,42,18.00
2014,05,07,16,43,18.10
2014,05,07,16,44,18.30
2014,05,07,16,45,18.40
2014,05,07,16,46,18.50
2014,05,07,16,47,18.60
2014,05,07,16,48,18.50
2014,05,07,16,49,18.40
2014,05,07,16,50,18.40
2014,05,07,16,51,18.30
2014,05,07,16,52,18.40
2014,05,07,16,53,18.50
2014,05,07,16,54,18.50
2014,05,07,16,55,18.60
2014,05,07,16,56,18.70
2014,05,07,16,57,18.70
2014,05,07,16,58,18.70
2014,05,07,16,59,18.70
2014,05,07,17,00,18.70
2014,05,07,17,01,18.60
2014,05,07,17,02,18.50
2014,05,07,17,03,18.50
2014,05,07,17,04,18.40
2014,05,07,17,05,18.40
2014,05,07,17,06,18.50
2014,05,07,17,07,18.50
2014,05,07,17,08,18.60
2014,05,07,17,09,18.60
2014,05,07,17,10,18.60
2014,05,07,17,11,18.60
2014,05,07,17,12,18.60
2014,05,07,17,13,18.50
2014,05,07,17,14,18.40
2014,05,07,17,15,18.40
2014,05,07,17,16,18.40
2014,05,07,17,17,18.40
2014,05,07,17,18,18.50
2014,05,07,17,19,18.50
2014,05,07,17,20,18.40
2014,05,07,17,21,18.40
2014,05,07,17,22,18.40
2014,05,07,17,23,18.40
2014,05,07,17,24,18.30
2014,05,07,17,25,18.10
2014,05,07,17,26,18.10
2014,05,07,17,27,18.00
2014,05,07,17,28,18.00
2014,05,07,17,29,18.00
2014,05,07,17,30,18.00
2014,05,07,17,31,18.00
2014,05,07,17,32,17.90
2014,05,07,17,33,17.80
2014,05,07,17,34,17.80
2014,05,07,17,35,17.70
2014,05,07,17,36,17.60
2014,05,07,17,37,17.60
2014,05,07,17,38,17.60
2014,05,07,17,39,17.60
2014,05,07,17,40,17.60
2014,05,07,17,41,17.60
2014,05,07,17,42,17.50